Location: Milton Keynes
(52.0316°N, 0.7531°W)
Time: 01:29:17
(UTC+01:00)

Envisat - Visible Passes

Search period start: 20 October 2019 00:00
Search period end: 29 October 2019 23:00
Orbit: 764 x 766 km, 98.1° (Epoch: 19 October)

Date Brightness Start Highest point End Pass type
(mag) Time Alt. Az. Time Alt. Az. Time Alt. Az.
20 Oct 3.0 18:33:26 10° SSE 18:38:26 64° ENE 18:43:30 10° N visible
20 Oct 5.5 20:13:58 10° SW 20:17:54 22° W 20:21:52 10° NW visible
21 Oct 6.2 06:37:56 10° NE 06:40:46 15° E 06:43:35 10° ESE visible
21 Oct 4.3 19:36:00 10° S 19:40:49 42° W 19:45:40 10° NNW visible
22 Oct 3.1 18:58:50 10° SSE 19:03:55 83° WSW 19:09:03 10° NNW visible
22 Oct 6.1 20:41:10 10° WSW 20:43:46 14° W 20:46:23 10° NW visible
23 Oct 5.8 07:02:33 10° NE 07:06:37 23° E 07:10:39 10° SE visible
23 Oct 3.2 18:22:18 10° SE 18:27:13 52° ENE 18:32:10 10° N visible
23 Oct 5.2 20:02:14 10° SSW 20:06:31 27° W 20:10:50 10° NW visible
24 Oct 6.4 06:27:26 10° ENE 06:29:19 12° E 06:31:12 10° ESE visible
24 Oct 3.9 19:24:32 10° S 19:29:29 52° W 19:34:29 10° NNW visible
25 Oct 3.0 18:47:34 10° SSE 18:52:39 82° ENE 18:57:46 10° NNW visible
25 Oct 5.8 20:29:03 10° SW 20:32:20 17° W 20:35:38 10° NW visible
26 Oct 6.0 06:51:34 10° NE 06:55:12 19° E 06:58:50 10° SE visible
26 Oct 4.8 19:50:37 10° SSW 19:55:09 32° W 19:59:44 10° NNW visible
27 Oct 3.5 18:13:09 10° S 18:18:11 63° WSW 18:23:15 10° NNW visible
27 Oct 6.3 19:57:37 10° W 19:58:15 10° W 19:58:53 10° WNW visible
28 Oct 3.0 17:36:21 10° SSE 17:41:24 68° ENE 17:46:28 10° N visible
28 Oct 5.6 19:17:09 10° SW 19:20:55 21° W 19:24:44 10° NW visible
29 Oct 6.1 05:40:42 10° NE 05:43:48 16° E 05:46:53 10° SE visible
29 Oct 4.4 18:39:04 10° SSW 18:43:48 39° W 18:48:36 10° NNW visible
